Regional Weather Roundup
Issued by NWS Mobile, AL

Home | Current Version | Previous Version | Text Only | Print | Product List | Glossary On
Versions: 1 2 3 4 5 6 7 8 9 10 11 12 13 14 15 16 17 18 19 20 21 22 23 24 25 26 27 28 29 30 31 32 33 34 35 36 37 38 39 40 41 42 43 44 45 46 47 48 49 50
537
ASUS44 KMOB 211013
RWRMOB
REGIONAL WEATHER ROUNDUP
NATIONAL WEATHER SERVICE MOBILE AL
500 AM CDT THU SEP 21 2017

NOTE: "FAIR" INDICATES FEW OR NO CLOUDS BELOW 12,000 FEET WITH NO
      SIGNIFICANT WEATHER AND/OR OBSTRUCTIONS TO VISIBILITY.

  * THESE STATIONS ARE PART OF THE UNIVERSITY OF SOUTH ALABAMA
    MESONET AND ARE NOT UNDER NWS OR FAA QUALITY CONTROL.

ALZ061>064-211100-
COASTAL ALABAMA

CITY           SKY/WX    TMP DP  RH WIND       PRES   REMARKS
MOBILE REG APT CLEAR     72  69  90 N6        30.01R
BROOKLEY FIELD CLOUDY    72  72 100 NW6       30.02R
USA CAMPUS*    NOT AVBL
DOG RIVER*     NOT AVBL


CITY           SKY/WX    TMP DP  RH WIND       PRES   REMARKS
GULF SHORES    CLOUDY    71  71 100 CALM      29.99R

$$

ALZ051>060-211100-
INTERIOR SOUTHWEST AND SOUTH CENTRAL ALABAMA

CITY           SKY/WX    TMP DP  RH WIND       PRES   REMARKS
GREENVILLE     CLEAR     71  67  87 N3        30.01R
EVERGREEN      FOG       69  68  96 CALM      30.02R VSB 1
ATMORE*          N/A    N/A N/A N/A CALM        N/A
ANDALUSIA/OPP  PTCLDY    73  70  90 CALM      30.00R FOG
ANDALUSIA*       N/A     70  70 100 NW2       30.01S
FLORALA APT    NOT AVBL
FLORALA*         N/A     70  70 100 CALM      30.69R

$$

FLZ001>006-211100-
WESTERN FLORIDA PANHANDLE

CITY           SKY/WX    TMP DP  RH WIND       PRES   REMARKS
PENSACOLA      CLOUDY    76  70  82 N6        29.99R
NAS PENSACOLA  CLOUDY    74  72  93 N3        29.99R
MILTON         MOCLDY    71  70  96 N5        30.00R
WHTNG S FIELD  PTCLDY    75  71  87 CALM      30.00R


CITY           SKY/WX    TMP DP  RH WIND       PRES   REMARKS
JAY*             N/A     72  70  94 CALM      30.01R
DUKE FIELD     PTCLDY    71  70  96 CALM      29.99R
CRESTVIEW      PTCLDY    72  69  90 N3        30.00S
VALPARAISO     MOCLDY    73  71  94 CALM      29.98R
DESTIN         PTCLDY    80  74  81 CALM      29.98R

$$

MSZ076-079-211100-
INTERIOR SOUTHEAST MISSISSIPPI

CITY           SKY/WX    TMP DP  RH WIND       PRES   REMARKS
LEAKESVILLE*   NOT AVBL
AGRICOLA*        N/A     70  70 100 CALM      30.00S

$$

MARINE OBSERVATIONS

STATION/POSITION TIME  TEMP    WIND        PRES    WAVE
                       AIR SEA DIR/SP/G            HT/PER
                 (UTC) (F)     (DEG/KT/KT) (MB)    (FT/S)
PASCAGOULA       0942   75      10/  3/  4 1015.5S
PETIT BOIS ISLND 0942   78      20/  4/  5 1016.3R
GRAND BAY        0845   72     360/  4     1016.0S
KATRINA CUT      0930   78      20/  4     1015.2S
CEDAR POINT      0930   76      10/  4     1015.2F
E DAUPHIN ISLAND 0900   79     350/  6/  7 1015.1S
MIDDLE BAY LIGHT 0930   78     340/  5     1015.2F
USCG MOBILE BAY  0942   72 82  340/  4/  5 1015.7R
STATE DOCKS      0942   73 81              1015.8R
MEAHER PARK      0930   74      10/  1     1015.9R
WEEKS BAY        0845   73                 1015.0S
FORT MORGAN      0942   80     360/  5/  5   N/A
12 S ORANGE BCH  0950   80 83  360/  6/  6 1015.1R   1
PENSACOLA BAY    0942   76 83              1015.6R
64 S DAUPHIN ISL 0950   82 84  320/  4/  6 1015.4R   1
67 S FORT MORGAN 0930   81                 1015.2S

$$

SELECTED LOCATIONS ACROSS THE REGION

CITY           SKY/WX    TMP DP  RH WIND       PRES   REMARKS
NEW ORLEANS    PTCLDY    73  73 100 CALM      30.00R
GULFPORT       CLEAR     74  71  91 CALM      29.99R
PASCAGOULA AP  CLEAR     69  66  90 CALM      30.00R
PASCAGOULA*      N/A    N/A N/A N/A CALM        N/A
HATTIESBURG    CLEAR     71  71 100 CALM      30.01R
LAUREL         CLOUDY    70  69  97 CALM      30.02R
MERIDIAN       CLEAR     69  68  96 CALM      30.03R
JACKSON        CLEAR     68  68 100 CALM      30.02S FOG
MONTGOMERY     CLEAR     73  68  84 N3        30.02R
TROY           CLEAR     69  69 100 CALM      30.02R FOG
ASHFORD*         N/A     70  70 100 NW2       30.01S
DOTHAN         MOCLDY    74  74 100 W6        30.03R FOG
PANAMA CITY    CLEAR     72  70  93 NW5       29.97R

$$





USA.gov is the U.S. government's official web portal to all federal, state and local government web resources and services.